Regional Weather Roundup
Issued by NWS

Home | Current Version | Previous Version | Graphics & Text | Print | Product List | Glossary On
Versions: 1 2 3 4 5 6 7 8 9 10 11 12 13 14 15 16 17 18 19 20 21 22 23 24 25 26 27 28 29 30 31 32 33 34 35 36 37 38 39 40 41 42 43 44 45 46 47 48 49 50
000
ASUS45 KBOU 291307
RWRCO

WEATHER ROUNDUP FOR COLORADO
NATIONAL WEATHER SERVICE DENVER/BOULDER CO
700 AM MDT SUN MAR 29 2015

NOTE: "FAIR" INDICATES FEW OR NO CLOUDS BELOW 12000 FEET WITH NO
SIGNIFICANT WEATHER AND/OR OBSTRUCTIONS TO VISIBILITY.

COZ001>005-013-030-031-291400-
...NORTHWEST COLORADO...

CITY           SKY/WX    TMP DP  RH WIND       PRES   REMARKS
CRAIG          CLEAR     30  20  66 NW3       30.33R
HAYDEN         CLEAR     34  16  47 SE3       30.32R
MEEKER         CLEAR     33  20  58 E5        30.33R WCI  29
MOUNT WERNER   NOT AVBL
STEAMBOAT SPGS CLEAR     32  20  61 CALM      30.32R
WALDEN         CLEAR     28  19  69 NE7       30.33R WCI  21
$$

COZ006>008-011-291400-
...WEST CENTRAL VALLEYS...

CITY           SKY/WX    TMP DP  RH WIND       PRES   REMARKS
GRAND JUNCTION CLEAR     44  17  33 S5        30.21R
MONTROSE       PTCLDY    47  26  44 S8        30.26R
EAGLE          CLEAR     36  18  48 S6        30.33R
RIFLE          CLEAR     39  16  39 S3        30.27R
DELTA          PTCLDY    44  25  48 CALM      30.23R
NUCLA          PTCLDY    41  23  48 E7        30.29R
$$

COZ017>023-064>068-291400-
...SOUTHWEST COLORADO...

CITY           SKY/WX    TMP DP  RH WIND       PRES   REMARKS
DURANGO        CLEAR     31  21  66 E3        30.25R
CORTEZ         CLEAR     34  23  64 E8        30.23R WCI  27
PAGOSA SPRINGS MOCLDY    34  23  63 W3        30.31R
TELLURIDE      PTCLDY   N/A N/A N/A CALM      30.38
WOLF CREEK PAS CLEAR     30  16  55 NW10G16   30.50R WCI  21
$$

COZ009-010-012-014-032>034-037-058>063-291400-
...CENTRAL COLORADO...

CITY           SKY/WX    TMP DP  RH WIND       PRES   REMARKS
ASPEN          CLEAR     34  22  61 S8        30.32R WCI  27
BUENA VISTA    PTCLDY    39  23  53 W6        30.29R
COPPER MTN     NOT AVBL
BERTHOUD PASS  FAIR      19  12  73 NW17      30.43R WCI   4
COTTONWOOD PAS PTCLDY    43  14  31 W20G37    30.31F
GUNNISON       MOCLDY    37  25  60 N7        30.34R
KREMMLING      CLEAR     30  19  64 E6        30.34R WCI  24
LEADVILLE      CLEAR     25  13  60 NE7       30.37R WCI  17
SALIDA         PTCLDY    47  24  40 SW3       30.35R
SUNLIGHT       CLEAR     34   5  29 W3        30.44R
WILKERSON PASS PTCLDY    32  -6  19 NW20G37   30.37S WCI  20
$$

COZ069>075-291400-
...SAN LUIS VALLEY/SANGRE DE CRISTO MOUNTAINS...

CITY           SKY/WX    TMP DP  RH WIND       PRES   REMARKS
ALAMOSA        PTCLDY    42  26  53 N12       30.30R
LA VETA PASS   CLEAR     37  21  52 W7        30.38R
SAGUACHE       PTCLDY    39  28  65 NW13      30.31R
$$

COZ035-036-038>040-291400-
...NORTHERN COLORADO FRONT RANGE...

CITY           SKY/WX    TMP DP  RH WIND       PRES   REMARKS
DENVER INTL AP PTCLDY    38  22  52 E12       30.23R
DMNS CITY PARK   N/A     42  24  47 E5        30.25R
AURORA         PTCLDY    39  23  52 E9        30.25R
FRONT RANGE AP CLEAR     39  25  56 E7        30.25R
ERIE MUNI ARPT CLEAR     40  24  52 S5        30.24R
BOULDER MUN AP CLEAR     43  27  52 SE5       30.24R
CENTENNIAL     PTCLDY    40  24  53 SE7       30.25R
BROOMFIELD     CLEAR     41  25  52 SE7       30.04R
FORT COLLINS   CLEAR     48  18  29 N16G24    30.25R
LONGMONT       CLEAR     41  23  48 SW7       30.25R
$$

COZ041-046-047-076>085-087-088-291400-
...PIKES PEAK/PALMER DIVIDE AND SOUTHERN FOOTHILLS...

CITY           SKY/WX    TMP DP  RH WIND       PRES   REMARKS
COLO. SPRINGS  PTCLDY    43  26  51 NE18G25   30.22R
A. F. ACADEMY  CLEAR     41  25  53 N14       30.24R
ELLICOTT       CLEAR    N/A N/A N/A NE8       30.23R
FALCON         CLEAR     37  26  64 N14       30.26R
FORT CARSON    CLEAR     45  26  46 NE10      30.22R
LIMON          CLEAR     36  22  56 NW10      30.22R
MONUMENT HILL  CLEAR     32  23  69 NE6       30.26R WCI  26
TRINIDAD       MOCLDY    50  25  37 N5        30.21R
$$

COZ042>045-048>051-090-091-291400-
...NORTHEAST COLORADO...

CITY           SKY/WX    TMP DP  RH WIND       PRES   REMARKS
GREELEY ARPT   CLEAR     43  18  36 NE14      30.23R
AKRON          CLEAR     39  19  44 N15       30.21R
BURLINGTON     CLEAR     45  23  42 N10       30.15R
WRAY           CLEAR     46  19  33 NW13      30.17R
STERLING       CLEAR     41  21  45 N7        30.21R
HOLYOKE        NOT AVBL
FORT MORGAN    CLEAR    N/A N/A N/A N21G28    30.22R
$$

COZ086-089-092>099-291400-
...SOUTHEAST COLORADO...

CITY           SKY/WX    TMP DP  RH WIND       PRES   REMARKS
PUEBLO         CLEAR     50  27  40 E10G24    30.18R
LA JUNTA       PTCLDY    49  27  42 N10       30.17R
LAMAR          CLEAR     50  34  54 N7        30.12R
SPRINGFIELD      N/A     51  31  46 N22       30.12R
$$



USA.gov is the U.S. government's official web portal to all federal, state and local government web resources and services.